User: anonymous   Login
Location: Mentone
(34.5413°N, 85.5351°W)
Time: 00:23:13
(UTC-05:00)
Language:

Transit 2A Rocket - Orbit

View from above orbital plane
View from above orbital plane
View from above satellite
View from above satellite

Ground track
Ground track

The orbit data is extracted from the following two-line orbital elements,

1    47U 60007C   17086.45208396 +.00000025 +00000-0 +30740-4 0  9998
2    47 066.6657 064.3972 0220452 084.7745 277.8473 14.41903345964854
Epoch (UTC): 27 March 2017 10:51:00
Eccentricity: 0.0220452
inclination: 66.6657°
perigee height: 595 km
apogee height: 909 km
right ascension of ascending node: 64.3972°
argument of perigee: 84.7745°
revolutions per day: 14.41903345
mean anomaly at epoch: 277.8473°
orbit number at epoch: 96485

The dashed part of the orbit path shows where the satellite is in the earth's shadow,  

DLR